Showing default

SCATSAT 1, 41790

Orbit data source: Space-Track

SCATSAT 1, 41790 is a payload satellite owned by ISRO (IN) in SSO that was launched on Mon, 26 Sep 2016 UTC via a PSLV launch vehicle from the Sirharikota (SRI). Payloads include a variety of satellites, spacecraft, and rockets equipped with specific instruments for various scientific and technological missions. These include communications satellites like Starlink; space stations such as the ISS; scientific satellites like the Hubble; Earth observation satellites from companies like Planet Labs, Umbra, and HawkEye 360; GPS; miniature CubeSats for education and research; and military/defense satellites.

Loading next visibility...
SCATSAT 1 details
Identifier
41790, 2016-059H
Orbit
SSO
Last TLE update13 hours ago
Origin
Flag of INISRO (IN / IND)
ManufacturerISRO SAC/Banga
MissionOperational Civil Science
Bus & MotorSSB-2, Unknown motor
Mass370 kg wet, ~350 kg dry
Launch date (UTC)
2016-09-26 (8 years ago)
Launch vehicle
PSLV
Launch site
Sirharikota (SRI)
Object type
Payload
Rocket body
Debris
Shape & HBRBox + 2 Pan, 4 m
Radar Cross Section4.015 m², Large (>1 m²)

Expand to show TLE details & history

TLE from 13 hours ago
0 SCATSAT 1
1 41790U 16059H   24339.86070049  .00003858  00000-0  54017-3 0  9991
2 41790  98.1979  25.1645 0056039 245.8671 113.6672 14.77079370 18948
Epoch: 2024-12-04T20:39Z
Definitive object data (Epoch: 2024-12-04T20:39:24.522Z)
Latitude-0.00001°
Longitude1.16254°
Altitude657.539 km
Speed7.52 km/s
True Right ascension01h 40m 39s
True Declination0° 00' 00"
Sunlit
Object was in full shadow at TLE epoch
Visualization TLE readout
Latitude7.28792°
Longitude0.66447°
Altitude662.345 km
Speed7.515 km/s
Apparent Right ascension23h 18m 56s
Apparent Declination-20° 24' 32"
Sunlit
Object is in full shadow
Visualization observer readout
Local Sidereal Time07:40:03
Azimuth275.961° WNW
Elevation-39.713°
Doppler factor1
Orbital elements
Apogee altitude674.921 km
Perigee altitude596.312 km
Semi-major axis7,013.754 km
Eccentricity0.0056039
Inclination98.1979°
RAAN25.1645°
Arg. of periapsis245.8671°
True anomaly114.25369°
Mean anomaly113.6672°
Eccentric anomaly113.96061°
Mean motion3.69503 °/min
BSTAR0.00054017
Orbital period97.43 mins
Loading maneuver chart data...
Loading historical data...
Loading historical data...
Loading historical data...
Loading historical data...
Loading historical data...
Loading historical data...
Loading historical data...

SCATSAT 1 Visibility forecast

Observer location: undefined°, undefined

Span
Click to sort rows by Start time (UTC) header in descending order
Start Az.
Max El. time (UTC)
Max El. Az.
Max El.
End time (UTC)
End Az.
5 mins2024-12-05 15:08:47.466Z57.756° ENE2024-12-05 15:10:47.466Z89.249° E18.353°2024-12-05 15:13:47.466Z135.868° SSE
6 mins2024-12-05 16:44:47.466Z346.901° N2024-12-05 16:47:47.466Z282.684° WNW30.783°2024-12-05 16:50:47.466Z228.174° WSW
4 mins2024-12-06 02:05:47.466Z91.338° ESE2024-12-06 02:07:47.466Z59.993° ENE16.942°2024-12-06 02:09:47.466Z31.086° NE
7 mins2024-12-06 03:40:47.466Z196.133° SSW2024-12-06 03:43:47.466Z270.312° WNW35.697°2024-12-06 03:47:47.466Z333.801° NNW
|